Flag for Netherlands Weather past 2 weeks in Enschede, Netherlands

Now
36 °F

Fog.


Feels Like: 29 °F
Forecast: 37 / 42 °F
Wind: 9 mph from Southwest

Location: Deelen

Current Time: Jan 28, 2015 at 12:21:46 AM

Latest Report: Jan 27, 2015 at 11:55 PM


Visibility: 3 mi

Pressure: 30.12 "Hg

Humidity: 93%

Dew point: 34 °F

Location of EnschedeLocation

Historic Weather in Enschede — Graph

°F

Enschede temperature yesterday

Maximum temperature yesterday: 43 °F (at 1:55 PM)
Minimum temperature yesterday: 32 °F (at 3:55 AM)
Average temperature yesterday: 38 °F

Past Weeks' High & Low Weather Summary

 TemperatureHumidityPressure
High50 °F (Jan 13, 1:25 AM)100% (Jan 12, 11:25 PM)30.39 "Hg (Jan 12, 11:25 PM)
Low21 °F (Jan 25, 3:25 AM)65% (Jan 17, 4:55 PM)29.33 "Hg (Jan 15, 1:25 PM)
Average36 °F90%29.93 "Hg
* Reported Jan 12 10:55 PM — Jan 27 10:55 PM, Enschede, Weather by CustomWeather, © 2014

Note: Actual official high and low records may vary slightly from our data, if they occured in-between our weather recording intervals... More about our weather records

Advertising

Enschede weather history for previous 24 hours

 ConditionsComfort  
Time TempWeatherWind HumidityBarometerVisibility
10:55 PM
Jan 27
34 °FFog.6 mph100%30.15 "Hg5 mi
10:25 PM34 °FFog.7 mph100%30.15 "Hg5 mi
9:55 PM36 °FFog.6 mph100%30.15 "Hg5 mi
9:25 PM37 °FFog.7 mph93%30.15 "Hg6 mi
8:55 PM36 °FFog.5 mph93%30.15 "Hg6 mi
8:25 PM36 °FPassing clouds.5 mph100%30.18 "HgN/A
7:55 PM37 °FPassing clouds.5 mph93%30.18 "HgN/A
7:25 PM39 °FPartly cloudy.5 mph93%30.18 "HgN/A
6:55 PM41 °FMostly cloudy.5 mph93%30.18 "HgN/A
6:25 PM39 °FOvercast.5 mph93%30.18 "HgN/A
5:55 PM41 °FOvercast.5 mph93%30.18 "HgN/A
5:25 PM41 °FOvercast.6 mph93%30.15 "HgN/A
4:55 PM41 °FOvercast.7 mph93%30.15 "HgN/A
4:25 PM41 °FMore clouds than sun.6 mph93%30.15 "HgN/A
3:55 PM41 °FMostly cloudy.3 mph93%30.15 "HgN/A
3:25 PM41 °FMore clouds than sun.7 mph93%30.18 "HgN/A
2:55 PM41 °FLight rain. Broken clouds.10 mph87%30.18 "Hg5 mi
2:25 PM43 °FLight rain. Broken clouds.8 mph87%30.18 "HgN/A
1:55 PM43 °FBroken clouds.6 mph87%30.18 "HgN/A
1:25 PM41 °FBroken clouds.8 mph93%30.18 "HgN/A
12:55 PM41 °FLight rain. Broken clouds.6 mph93%30.18 "HgN/A
12:25 PM41 °FBroken clouds.6 mph87%30.18 "HgN/A
11:55 AM41 °FMore clouds than sun.8 mph93%30.18 "HgN/A
11:25 AM41 °FBroken clouds.9 mph87%30.18 "HgN/A
10:55 AM39 °FPartly sunny.7 mph93%30.18 "HgN/A
10:25 AM39 °FBroken clouds.8 mph93%30.18 "HgN/A
9:55 AM39 °FBroken clouds.8 mph93%30.18 "HgN/A
9:25 AM37 °FPartly sunny.8 mph93%30.18 "HgN/A
8:55 AM36 °FBroken clouds.6 mph93%30.18 "HgN/A
8:25 AM36 °FOvercast.6 mph100%30.18 "HgN/A
7:55 AM36 °FOvercast.5 mph100%30.18 "HgN/A
7:25 AM36 °FPartly cloudy.6 mph100%30.15 "HgN/A
6:55 AM36 °FPassing clouds.7 mph93%30.15 "HgN/A
6:25 AM36 °FChilly.8 mph93%30.15 "HgN/A
5:55 AM37 °FLight rain. Passing clouds.12 mph87%30.18 "Hg3 mi
5:25 AM32 °FPassing clouds.7 mph100%30.15 "HgN/A
4:55 AM34 °FPassing clouds.6 mph93%30.15 "HgN/A
4:25 AM34 °FPassing clouds.5 mph93%30.15 "HgN/A
3:55 AM32 °FPassing clouds.6 mph100%30.15 "HgN/A
3:25 AM34 °FPassing clouds.3 mph100%30.15 "HgN/A
2:55 AM34 °FPassing clouds.6 mph93%30.15 "HgN/A
2:25 AM34 °FPassing clouds.6 mph93%30.15 "HgN/A
1:55 AM36 °FPassing clouds.7 mph93%30.12 "HgN/A
1:25 AM36 °FPassing clouds.7 mph93%30.12 "HgN/A
12:55 AM36 °FMostly cloudy.7 mph93%30.12 "HgN/A
12:25 AM37 °FPartly cloudy.9 mph93%30.12 "HgN/A
Weather by CustomWeather, © 2014

See weather overviewHow to use our weather pages